Other Public Products
Issued by NWS Grand Forks, ND

Home | Current Version | Previous Version | Graphics & Text | Print | Product List | Glossary On
Versions: 1 2 3 4 5 6 7 8 9 10 11 12 13 14 15 16 17 18 19 20 21 22 23 24 25 26 27 28 29 30 31 32 33 34 35 36 37 38 39 40 41 42 43 44 45 46 47 48 49 50
000
FPUS83 KFGF 270731
OPUFGF
PRAIRIE TO PINES WEATHER ROUNDUP
NATIONAL WEATHER SERVICE EASTERN NORTH DAKOTA/GRAND FORKS ND
100 AM CST MON FEB 27 2017

 **SATELLITE DATA USED TO AUGMENT SKY COVER AT AUTOMATED STATIONS**
 *****  WEATHER ACROSS EASTERN NORTH DAKOTA  *****

CITY           SKY/WX    TMP DP  RH WIND       PRES   REMARKS
GRAND FORKS    FAIR       6  -1  73 S7        29.90S WCI  -6
GRAND FORKS AF FAIR       8   3  79 SW5       29.90S WCI  -1
GRAND CITY NWS NOT AVBL
BUXTON         NOT AVBL
DEVILS LAKE    FAIR       7   4  87 S5        29.84F WCI  -2
FARGO          CLOUDY    21  15  78 SE6       29.91S WCI  13
WAHPETON ARPT    N/A     19  12  73 E5        29.92S WCI  13
$$

 *****  WEATHER ACROSS CENTRAL AND WESTERN NORTH DAKOTA  *****

CITY           SKY/WX    TMP DP  RH WIND       PRES   REMARKS
JAMESTOWN      CLOUDY    21  17  84 CALM      29.85S
BISMARCK       FAIR      12   9  87 SE3       29.86R
MINOT          FAIR      14  10  84 SW9       29.80S WCI   2
MINOT AFB      FAIR       8   4  86 SW9       29.80R WCI  -6
GARRISON         N/A      7   3  84 CALM      29.81R
WILLISTON      FAIR      11   6  81 NW7       29.81R WCI   0
DICKINSON      CLOUDY    14  11  87 S6        29.75F WCI   5
HETTINGER      CLOUDY    20  17  88 SE7       29.77F WCI  11
$$

 *****  OTHER OBSERVATIONS NORTHEAST NORTH DAKOTA  *****

CITY           SKY/WX    TMP DP  RH WIND       PRES   REMARKS
WALHALLA       NOT AVBL
LANGDON        NOT AVBL
CAVALIER         N/A     14   7  73 SW6       29.86S WCI   5
GRAFTON        PTSUNNY    9   5  85 S7        29.90S WCI  -3
CANDO          NOT AVBL
FORT TOTTEN      N/A      7   5  93 SE5       29.95S WCI  -2
ROLLA          FAIR       7   5  92 SW13      29.79R WCI  -9
RUGBY            N/A      3   1  92 SW8       29.82R WCI -10
 ***** THE ABOVE OBSERVATIONS ARE NON NWS ARE NOT QUALITY
        CONTROLLED AND MAY MIS-REPORT RAIN FOR SNOW...
$$

 *****  OTHER OBSERVATIONS SOUTHEAST NORTH DAKOTA *****

CITY           SKY/WX    TMP DP  RH WIND       PRES   REMARKS
COOPERSTOWN    FAIR       0  -4  85 CALM      29.87S
VALLEY CITY    CLOUDY    21  21 100 S5        29.88S WCI  15
OAKES          NOT AVBL
GWINNER        CLOUDY    23  21  93 E8        29.88R WCI  14
SHEYENNE NWR     N/A     20  14  76 SE3       29.95S
BUFFALO        NOT AVBL
WYNDMERE         N/A     18  14  86 SE7         N/A  WCI   8
 ***** THE ABOVE OBSERVATIONS ARE NON NWS ARE NOT QUALITY
       CONTROLLED AND MAY MIS-REPORT RAIN FOR SNOW...
$$

  *****  WEATHER ACROSS NORTHERN MINNESOTA  *****

CITY           SKY/WX    TMP DP  RH WIND       PRES   REMARKS
FLAG ISLAND    FAIR      10   5  79 SW9       29.83S WCI  -2
WARROAD        FAIR       9   3  78 SW8       29.86S WCI  -4
ROSEAU         FAIR       9   3  78 S9        29.86S WCI  -5
HALLOCK        CLOUDY    12   9  85 S7        29.87S WCI   2
THF RVR FALLS    N/A    N/A N/A N/A MISG        N/A
HALSTAD          N/A     14  10  87 S5          N/A  WCI   6
FOSSTON        FAIR       7   5  92 S6        29.90R WCI  -3
BAUDETTE       FAIR       6   1  80 SW5       29.86S WCI  -3
WASKISH        FAIR       7   3  85 S3        29.89S
CROOKSTON      FAIR       9   7  92 S3        29.92S
$$
  *****  WEATHER ACROSS CENTRAL AND WEST MINNESOTA  *****

CITY           SKY/WX    TMP DP  RH WIND       PRES   REMARKS
BEMIDJI        FAIR       1  -3  84 CALM      29.89S
PARK RAPIDS    CLOUDY    14   7  73 CALM      29.90R
WADENA         CLOUDY    16  10  79 CALM      29.90S
DETROIT LAKES  MOCLDY    19  14  79 S3        29.90S
MOORHEAD       CLOUDY    19  14  79 SE6       29.92S WCI  11
FERGUS FALLS   CLOUDY    18  10  73 W5        29.96R WCI  11
ELBOW LAKE     CLOUDY    18  14  84 CALM      29.90S
MORRIS MN      MOCLDY    21  18  86 E9        29.88S WCI  11
STAPLES        CLOUDY    16  10  79 CALM      29.91S
WHEATON        CLOUDY    21  18  86 NE3       29.92S
$$
  *****  WEATHER ELSEWHERE ACROSS MINNESOTA  *****

CITY           SKY/WX    TMP DP  RH WIND       PRES   REMARKS
DULUTH         MOCLDY     6  -1  73 CALM      29.90R
INTRNTL FALLS  FAIR       3  -2  79 S3        29.88S
ELY            FAIR      -4  -8  84 CALM      29.91R
CLOQUET        CLOUDY     3  -2  78 CALM      29.93R
BRAINERD       CLOUDY    17  11  77 CALM      29.93S
HIBBING        FAIR      -4  -7  87 CALM      29.90R
ALEXANDRIA     MOCLDY    20  16  84 SE6       29.89S WCI  12
SAINT CLOUD    CLOUDY    25  18  74 CALM      29.93S
MINNEAPOLIS    MOCLDY    28  17  63 SE6       29.96S WCI  22
$$

  *****  WEATHER ACROSS SOUTH DAKOTA  *****

CITY           SKY/WX    TMP DP  RH WIND       PRES   REMARKS
SIOUX FALLS    FAIR      28  21  75 SW9       29.90F WCI  19
BROOKINGS      FAIR      27  22  81 S8        29.86S WCI  19
WATERTOWN      FAIR      27  23  85 S8        29.82F WCI  19
HURON          FAIR      26  20  77 SW5       29.85S WCI  20
SISSETON         N/A     22  20  92 SE5       29.87S WCI  16
ABERDEEN       FAIR      22  19  89 N7        29.86R WCI  13
MITCHELL       FAIR      27  20  75 SW9       29.89S WCI  18
PIERRE         FAIR      25  14  63 W8        29.81S WCI  16
MOBRIDGE       FAIR      24  20  84 CALM      29.81R
RAPID CITY     MOCLDY    26  14  60 S6        29.74F WCI  19
$$

  *****  SOME WEATHER IN NEARBY STATES *****

CITY           SKY/WX    TMP DP  RH WIND       PRES   REMARKS
GLASGOW MT     LGT SNOW  19  14  81 NE3       29.77S
GREAT FALLS MT LGT SNOW  15  12  88 NE8       29.68S FOG     WCI   4
CHEYENNE WY    FAIR      13   5  70 W5        29.72F WCI   5
SCOTTSBLUFF NE FAIR      15   6  67 E10       29.79F WCI   2
OMAHA NE       FAIR      28  22  78 S3        30.00F
DES MOINES IA  MOCLDY    33  21  61 CALM      30.03S
DAVENPORT IA   MOCLDY    31  26  82 S5        30.07R
CHICAGO IL     FAIR      36  25  64 SW3       30.07R
EAU CLAIRE WI  CLOUDY    24  18  77 SW3       29.98R
LA CROSSE WI   FAIR      27  22  81 SE6       30.03R WCI  20
$$

  *****  SOME NATIONAL WEATHER *****

CITY           SKY/WX    TMP DP  RH WIND       PRES   REMARKS
LA GUARDIA NY  FAIR      39  15  37 SW6       30.29S
RALEIGH NC     FAIR      38  23  55 CALM      30.33S
ATLANTA GA     FAIR      48  24  39 SE3       30.21S
NEW ORLEANS LA MOCLDY    66  60  81 SE15      30.06F
OKLAHOMA CITY  MOCLDY    41  33  73 E8        29.92F
ALBUQUERQUE NM FAIR      33  21  61 SE9       29.94R
SALT LAKE CITY MOCLDY    40  21  46 S18       29.60F
LOS ANGELES CA MOCLDY    52  46  80 E8        29.97S
BOISE ID       FAIR      31  23  72 SE14      29.65F WCI  21
SEATTLE WA     CLOUDY    39  31  72 N5        29.75S
$$

*** WEATHER ACROSS MANITOBA...SASKATCHEWAN AND ONTARIO ***
                ***ONTARIO***

CITY           SKY/WX    TMP DP  RH WIND       PRES   REMARKS
GERALDTON      CLEAR      1  -6  71 W6        29.84R WCI -10
THUNDER BAY    CLEAR      1   0  92 NW3       29.94R
SIOUX LOOKOUT  FLURRIES   5   0  78 S6        29.81R WCI  -6
TORONTO        PTCLDY    37  21  52 SW16G23   30.02R
BIG TROUT LK   CLEAR     -8 -11  84 W7        29.75R WCI -22
PICKLE LAKE    NOT AVBL
DRYDEN         CLOUDY     9   3  78 SW6       29.81R WCI  -1
KENORA         FLURRIES  12   7  79 SW8       29.80R WCI   1
$$
                *** MANITOBA***

CITY           SKY/WX    TMP DP  RH WIND       PRES   REMARKS
BRANDON        CLOUDY     3   0  85 SW6       29.78S WCI  -8
DAUPHIN        LGT SNOW  10   9  92 N13       29.80R WCI  -5
ISLAND LAKE    PTCLDY   -13 -18  77 CALM      29.79R
PILOT MOUND      N/A      7   3  85 SW6         N/A  WCI  -3
THE PAS        CLEAR     -9 -15  77 CALM      29.85R
THOMPSON       CRYSTALS -24 -29  76 CALM      29.80S
WINNIPEG       CLEAR     12   9  85 W9        29.82S WCI   0
LYNN LAKE      CLEAR    -24 -29  76 W7        29.76S WCI -42
CHURCHILL      CRYSTALS -27 -33  75 W10       29.77S WCI -50
GILLAM         CLEAR    -18 -26  69 W7        29.79R WCI -35
$$
                ***SASKATCHEWAN***

CITY           SKY/WX    TMP DP  RH WIND       PRES   REMARKS
ESTEVAN        MOCLDY    12   7  79 NW14      29.80R WCI  -3
KINDERSLEY     CLEAR     -2  -8  78 W2        29.81F
LLOYDMINSTER   CLEAR     -4  -9  77 SW8       29.77F WCI -19
PRINCE ALBERT  FLURRIES  -6 -11  77 W6        29.86S WCI -18
REGINA         PTCLDY     3  -2  78 W10       29.81S WCI -12
YORKTON        FLURRIES   7   1  78 NW8       29.78R WC



USA.gov is the U.S. government's official web portal to all federal, state and local government web resources and services.